| time (UTC) | temp C | wind direction | speed KPH | gust KPH | rain 1hr cm | rain 24hr cm | rain mn cm | humidity % | barometer mb |
| 20260506214405 | 11 | 174 | 0.0 | 0.0 | 0.00 | 0.86 | 0.86 | 95 | 1002.9 |
| 20260506213903 | 11 | 174 | 0.0 | 0.0 | 0.00 | 0.86 | 0.86 | 95 | 1003.1 |
| 20260506213401 | 11 | 174 | 0.0 | 0.0 | 0.00 | 0.86 | 0.86 | 95 | 1003.2 |
| 20260506212858 | 12 | 174 | 0.0 | 0.0 | 0.13 | 0.86 | 0.86 | 95 | 1003.3 |
| 20260506212353 | 12 | 174 | 0.0 | 0.0 | 0.30 | 0.86 | 0.86 | 95 | 1003.3 |
| 20260506211848 | 12 | 174 | 0.0 | 0.0 | 0.30 | 0.84 | 0.84 | 95 | 1003.1 |
| 20260506211344 | 12 | 174 | 0.0 | 0.0 | 0.30 | 0.81 | 0.81 | 95 | 1003.3 |
| 20260506210842 | 12 | 174 | 0.0 | 0.0 | 0.36 | 0.79 | 0.79 | 95 | 1003.3 |
| 20260506210339 | 12 | 174 | 0.0 | 0.0 | 0.30 | 0.76 | 0.76 | 95 | 1003.6 |
| 20260506205836 | 12 | 174 | 0.0 | 0.0 | 0.13 | 0.74 | 0.74 | 95 | 1003.4 |
| 20260506205332 | 12 | 174 | 0.0 | 0.0 | 0.18 | 0.71 | 0.71 | 95 | 1003.4 |
| 20260506204828 | 12 | 174 | 0.0 | 0.0 | 0.18 | 0.71 | 0.71 | 95 | 1003.3 |
| 20260506204326 | 12 | 174 | 0.0 | 0.0 | 0.00 | 0.69 | 0.69 | 95 | 1003.5 |
| 20260506203824 | 12 | 174 | 0.0 | 0.0 | 0.13 | 0.69 | 0.69 | 95 | 1003.4 |
| 20260506203321 | 12 | 174 | 0.0 | 0.0 | 0.13 | 0.69 | 0.69 | 95 | 1003.4 |
| 20260506202817 | 12 | 174 | 0.0 | 0.0 | 0.18 | 0.66 | 0.66 | 95 | 1003.4 |
| 20260506202315 | 12 | 174 | 0.0 | 0.0 | 0.30 | 0.66 | 0.66 | 95 | 1003.6 |
| 20260506201811 | 13 | 174 | 0.0 | 0.0 | 0.13 | 0.64 | 0.64 | 95 | 1003.6 |
| 20260506201308 | 13 | 174 | 0.0 | 0.0 | 0.00 | 0.61 | 0.61 | 95 | 1003.6 |
| 20260506200805 | 13 | 174 | 0.0 | 0.0 | 0.48 | 0.61 | 0.61 | 95 | 1003.5 |
| 20260506200301 | 13 | 174 | 0.0 | 0.0 | 0.43 | 0.58 | 0.58 | 95 | 1003.7 |
| 20260506195757 | 13 | 174 | 0.0 | 0.0 | 0.13 | 0.53 | 0.53 | 95 | 1004.0 |
| 20260506195254 | 13 | 174 | 0.0 | 0.0 | 0.18 | 0.51 | 0.51 | 95 | 1003.8 |
| 20260506194752 | 13 | 174 | 0.0 | 0.0 | 0.18 | 0.51 | 0.51 | 95 | 1003.7 |
| 20260506194248 | 13 | 174 | 0.0 | 0.0 | 0.18 | 0.48 | 0.48 | 95 | 1004.0 |
| 20260506193746 | 13 | 174 | 0.0 | 0.0 | 0.18 | 0.48 | 0.48 | 95 | 1003.9 |
| 20260506193242 | 13 | 174 | 0.0 | 0.0 | 0.00 | 0.46 | 0.46 | 95 | 1004.2 |
| 20260506192739 | 13 | 174 | 0.0 | 0.0 | 0.00 | 0.46 | 0.46 | 95 | 1004.0 |
| 20260506192236 | 13 | 174 | 0.0 | 0.0 | 0.13 | 0.46 | 0.46 | 95 | 1004.0 |
| 20260506191732 | 13 | 174 | 0.0 | 0.0 | 0.13 | 0.46 | 0.46 | 95 | 1004.1 |
| 20260506191229 | 13 | 174 | 0.0 | 0.0 | 0.18 | 0.43 | 0.43 | 95 | 1004.1 |
| 20260506190726 | 13 | 174 | 0.0 | 0.0 | 0.18 | 0.43 | 0.43 | 95 | 1004.1 |
| 20260506190222 | 14 | 174 | 0.0 | 0.0 | 0.13 | 0.41 | 0.41 | 95 | 1004.3 |
| 20260506185720 | 14 | 174 | 0.0 | 0.0 | 0.43 | 0.41 | 0.41 | 95 | 1004.3 |
| 20260506185216 | 14 | 174 | 0.0 | 0.0 | 0.30 | 0.38 | 0.38 | 95 | 1004.3 |
| 20260506184714 | 14 | 174 | 0.0 | 0.0 | 0.18 | 0.33 | 0.33 | 95 | 1004.2 |
| 20260506184211 | 13 | 174 | 0.0 | 0.0 | 0.30 | 0.33 | 0.33 | 95 | 1004.3 |
| 20260506183707 | 13 | 174 | 0.0 | 0.0 | 0.43 | 0.30 | 0.30 | 95 | 1004.5 |
| 20260506183203 | 13 | 174 | 0.0 | 0.0 | 0.79 | 0.28 | 0.28 | 95 | 1004.4 |
| 20260506182701 | 13 | 174 | 0.0 | 0.0 | 0.48 | 0.20 | 0.20 | 95 | 1004.4 |
| 20260506182157 | 13 | 174 | 0.0 | 1.6 | 0.30 | 0.15 | 0.15 | 95 | 1004.6 |
| 20260506181655 | 13 | 174 | 0.0 | 0.0 | 0.30 | 0.13 | 0.13 | 94 | 1004.7 |
| 20260506181152 | 13 | 174 | 0.0 | 0.0 | 0.13 | 0.08 | 0.08 | 94 | 1004.4 |
| 20260506180649 | 12 | 174 | 0.0 | 0.0 | 0.13 | 0.08 | 0.08 | 93 | 1004.1 |
| 20260506180145 | 12 | 174 | 0.0 | 1.6 | 0.18 | 0.05 | 0.05 | 92 | 1003.9 |
| 20260506175642 | 12 | 174 | 0.0 | 0.0 | 0.18 | 0.05 | 0.05 | 92 | 1003.8 |
| 20260506175138 | 12 | 174 | 0.0 | 0.0 | 0.13 | 0.03 | 0.03 | 89 | 1004.1 |
| 20260506174632 | 13 | 174 | 0.0 | 3.2 | 0.13 | 0.03 | 0.03 | 88 | 1004.0 |
| 20260506174128 | 13 | 174 | 0.0 | 3.2 | 0.00 | 0.00 | 0.00 | 89 | 1004.0 |
| 20260506173626 | 13 | 174 | 1.6 | 3.2 | 0.00 | 0.00 | 0.00 | 87 | 1004.1 |
| 20260506173122 | 13 | 174 | 0.0 | 4.8 | 0.00 | 0.00 | 0.00 | 84 | 1003.9 |
| 20260506172619 | 14 | 174 | 0.0 | 3.2 | 0.00 | 0.00 | 0.00 | 81 | 1004.3 |
| 20260506172115 | 15 | 174 | 0.0 | 6.4 | 0.00 | 0.00 | 0.00 | 80 | 1004.2 |
| 20260506171613 | 15 | 174 | 0.0 | 11.3 | 0.00 | 0.00 | 0.00 | 82 | 1004.3 |
| 20260506171110 | 14 | 174 | 0.0 | 0.0 | 0.00 | 0.00 | 0.00 | 84 | 1004.5 |
| 20260506170607 | 14 | 174 | 0.0 | 0.0 | 0.00 | 0.00 | 0.00 | 84 | 1004.4 |
| 20260506170059 | 14 | 174 | 0.0 | 0.0 | 0.00 | 0.00 | 0.00 | 85 | 1004.7 |
| 20260506165558 | 13 | 174 | 0.0 | 0.0 | 0.00 | 0.00 | 0.00 | 84 | 1004.8 |
| 20260506165053 | 13 | 174 | 0.0 | 0.0 | 0.00 | 0.00 | 0.00 | 84 | 1005.0 |
| 20260506164551 | 13 | 174 | 0.0 | 0.0 | 0.00 | 0.00 | 0.00 | 84 | 1005.0 |
| 20260506164048 | 13 | 174 | 0.0 | 0.0 | 0.00 | 0.00 | 0.00 | 84 | 1005.1 |
| 20260506163543 | 14 | 174 | 0.0 | 0.0 | 0.00 | 0.00 | 0.00 | 83 | 1005.4 |
| 20260506163039 | 14 | 174 | 0.0 | 0.0 | 0.00 | 0.00 | 0.00 | 83 | 1005.4 |
| 20260506162535 | 13 | 174 | 0.0 | 0.0 | 0.00 | 0.00 | 0.00 | 83 | 1005.5 |
| 20260506162027 | 14 | 174 | 0.0 | 0.0 | 0.00 | 0.00 | 0.00 | 83 | 1005.7 |
| 20260506161525 | 13 | 174 | 0.0 | 0.0 | 0.00 | 0.00 | 0.00 | 83 | 1005.8 |
| 20260506161022 | 13 | 174 | 0.0 | 0.0 | 0.00 | 0.00 | 0.00 | 83 | 1005.9 |
| 20260506160519 | 13 | 174 | 0.0 | 0.0 | 0.00 | 0.00 | 0.00 | 82 | 1006.0 |
| 20260506160016 | 14 | 174 | 0.0 | 3.2 | 0.00 | 0.00 | 0.00 | 81 | 1006.4 |
| 20260506155514 | 14 | 174 | 0.0 | 0.0 | 0.00 | 0.00 | 0.00 | 82 | 1006.2 |
| 20260506153646 | 12 | 174 | 0.0 | 0.0 | 0.00 | 0.00 | 0.00 | 85 | 1006.5 |
| 20260506153143 | 12 | 174 | 0.0 | 0.0 | 0.00 | 0.00 | 0.00 | 84 | 1006.3 |
| 20260506152640 | 13 | 174 | 0.0 | 0.0 | 0.00 | 0.00 | 0.00 | 83 | 1006.2 |
| 20260506152138 | 13 | 174 | 1.6 | 3.2 | 0.00 | 0.00 | 0.00 | 82 | 1006.3 |
| 20260506151636 | 13 | 174 | 0.0 | 0.0 | 0.00 | 0.00 | 0.00 | 82 | 1006.3 |
| 20260506151132 | 14 | 174 | 1.6 | 4.8 | 0.00 | 0.00 | 0.00 | 81 | 1006.4 |
| 20260506150629 | 14 | 174 | 1.6 | 1.6 | 0.00 | 0.00 | 0.00 | 81 | 1006.5 |
| 20260506150126 | 14 | 174 | 0.0 | 0.0 | 0.00 | 0.00 | 0.00 | 81 | 1006.4 |
| 20260506145623 | 14 | 174 | 0.0 | 0.0 | 0.00 | 0.00 | 0.00 | 81 | 1006.3 |
| 20260506145120 | 14 | 174 | 1.6 | 3.2 | 0.00 | 0.00 | 0.00 | 81 | 1006.2 |
| 20260506144618 | 13 | 174 | 0.0 | 0.0 | 0.00 | 0.00 | 0.00 | 82 | 1006.0 |
| 20260506144114 | 13 | 174 | 0.0 | 0.0 | 0.00 | 0.00 | 0.00 | 83 | 1006.2 |
| 20260506143612 | 13 | 174 | 0.0 | 0.0 | 0.00 | 0.00 | 0.00 | 84 | 1006.2 |
| 20260506143110 | 12 | 174 | 0.0 | 1.6 | 0.00 | 0.00 | 0.00 | 84 | 1005.8 |
| 20260506142608 | 12 | 174 | 0.0 | 1.6 | 0.00 | 0.00 | 0.00 | 84 | 1006.1 |
| 20260506142106 | 12 | 174 | 0.0 | 0.0 | 0.00 | 0.00 | 0.00 | 84 | 1006.0 |
| 20260506141603 | 12 | 174 | 0.0 | 0.0 | 0.00 | 0.00 | 0.00 | 84 | 1006.3 |
| 20260506141101 | 12 | 174 | 0.0 | 3.2 | 0.00 | 0.00 | 0.00 | 84 | 1006.3 |
| 20260506140558 | 12 | 174 | 0.0 | 0.0 | 0.00 | 0.00 | 0.00 | 84 | 1006.3 |
| 20260506140055 | 12 | 174 | 0.0 | 3.2 | 0.00 | 0.00 | 0.00 | 85 | 1006.3 |
| 20260506135552 | 12 | 174 | 0.0 | 0.0 | 0.00 | 0.00 | 0.00 | 85 | 1006.6 |
| 20260506135048 | 11 | 174 | 0.0 | 0.0 | 0.00 | 0.00 | 0.00 | 86 | 1006.4 |
| 20260506134545 | 11 | 174 | 0.0 | 0.0 | 0.00 | 0.00 | 0.00 | 87 | 1006.7 |
| 20260506134041 | 11 | 174 | 0.0 | 0.0 | 0.00 | 0.00 | 0.00 | 87 | 1006.8 |
| 20260506133538 | 11 | 174 | 0.0 | 0.0 | 0.00 | 0.00 | 0.00 | 87 | 1006.6 |
| 20260506133035 | 11 | 174 | 0.0 | 0.0 | 0.00 | 0.00 | 0.00 | 87 | 1006.7 |
| 20260506132532 | 11 | 174 | 0.0 | 0.0 | 0.00 | 0.00 | 0.00 | 87 | 1006.9 |
| 20260506132030 | 11 | 174 | 0.0 | 0.0 | 0.00 | 0.00 | 0.00 | 87 | 1006.9 |
| 20260506131527 | 11 | 174 | 0.0 | 0.0 | 0.00 | 0.00 | 0.00 | 87 | 1006.8 |
| 20260506131023 | 11 | 174 | 0.0 | 0.0 | 0.00 | 0.00 | 0.00 | 86 | 1006.8 |
| 20260506130520 | 11 | 174 | 0.0 | 1.6 | 0.00 | 0.00 | 0.00 | 86 | 1006.4 |
| 20260506130018 | 11 | 174 | 0.0 | 0.0 | 0.00 | 0.00 | 0.00 | 85 | 1006.4 |
| 20260506125516 | 11 | 174 | 0.0 | 0.0 | 0.00 | 0.00 | 0.00 | 85 | 1006.4 |
| 20260506125013 | 11 | 174 | 0.0 | 1.6 | 0.00 | 0.00 | 0.00 | 84 | 1006.7 |
| 20260506124511 | 12 | 174 | 0.0 | 0.0 | 0.00 | 0.00 | 0.00 | 83 | 1006.7 |
| 20260506124009 | 12 | 174 | 1.6 | 3.2 | 0.00 | 0.00 | 0.00 | 83 | 1006.7 |
| 20260506123506 | 12 | 174 | 0.0 | 0.0 | 0.00 | 0.00 | 0.00 | 82 | 1006.7 |
| 20260506123004 | 12 | 174 | 0.0 | 0.0 | 0.00 | 0.00 | 0.00 | 83 | 1006.6 |
| 20260506122500 | 12 | 174 | 0.0 | 0.0 | 0.00 | 0.00 | 0.00 | 82 | 1007.0 |
| 20260506121959 | 12 | 174 | 0.0 | 0.0 | 0.00 | 0.00 | 0.00 | 83 | 1007.0 |
| 20260506121455 | 12 | 174 | 0.0 | 0.0 | 0.00 | 0.00 | 0.00 | 83 | 1007.0 |
| 20260506120952 | 12 | 174 | 0.0 | 0.0 | 0.00 | 0.00 | 0.00 | 84 | 1006.9 |
| 20260506120450 | 11 | 174 | 0.0 | 0.0 | 0.00 | 0.00 | 0.00 | 86 | 1007.0 |
| 20260506115947 | 11 | 174 | 0.0 | 0.0 | 0.00 | 0.00 | 0.00 | 88 | 1007.0 |
| 20260506115445 | 11 | 174 | 0.0 | 0.0 | 0.00 | 0.00 | 0.00 | 88 | 1007.0 |
| 20260506114943 | 11 | 174 | 0.0 | 0.0 | 0.00 | 0.00 | 0.00 | 88 | 1007.1 |
| 20260506114440 | 10 | 174 | 0.0 | 0.0 | 0.00 | 0.00 | 0.00 | 89 | 1006.8 |
| 20260506113939 | 10 | 174 | 0.0 | 0.0 | 0.00 | 0.00 | 0.00 | 89 | 1007.3 |
| 20260506113436 | 10 | 174 | 0.0 | 0.0 | 0.00 | 0.00 | 0.00 | 89 | 1007.4 |
| 20260506112932 | 10 | 174 | 0.0 | 0.0 | 0.00 | 0.00 | 0.00 | 90 | 1007.3 |
| 20260506112430 | 10 | 174 | 0.0 | 0.0 | 0.00 | 0.00 | 0.00 | 91 | 1007.2 |
| 20260506111927 | 10 | 174 | 0.0 | 0.0 | 0.00 | 0.00 | 0.00 | 91 | 1007.4 |
| 20260506111425 | 10 | 174 | 0.0 | 0.0 | 0.00 | 0.00 | 0.00 | 92 | 1007.6 |
| 20260506110922 | 10 | 174 | 0.0 | 0.0 | 0.00 | 0.00 | 0.00 | 92 | 1007.2 |
| 20260506110420 | 10 | 174 | 0.0 | 0.0 | 0.00 | 0.00 | 0.00 | 92 | 1007.3 |
| 20260506105916 | 10 | 174 | 0.0 | 0.0 | 0.00 | 0.00 | 0.00 | 93 | 1007.4 |
| 20260506105413 | 10 | 174 | 0.0 | 0.0 | 0.00 | 0.00 | 0.00 | 93 | 1007.7 |
| 20260506104910 | 10 | 174 | 0.0 | 0.0 | 0.00 | 0.00 | 0.00 | 93 | 1007.4 |
| 20260506104408 | 9 | 174 | 0.0 | 0.0 | 0.00 | 0.00 | 0.00 | 92 | 1007.3 |
| 20260506103905 | 9 | 174 | 0.0 | 0.0 | 0.00 | 0.00 | 0.00 | 92 | 1007.2 |
| 20260506103403 | 9 | 174 | 0.0 | 0.0 | 0.00 | 0.00 | 0.00 | 92 | 1007.0 |
| 20260506102900 | 8 | 174 | 0.0 | 0.0 | 0.00 | 0.00 | 0.00 | 92 | 1007.2 |
| 20260506102358 | 8 | 174 | 0.0 | 0.0 | 0.00 | 0.00 | 0.00 | 92 | 1007.1 |
| 20260506101854 | 8 | 174 | 0.0 | 0.0 | 0.00 | 0.00 | 0.00 | 92 | 1006.9 |
| 20260506101350 | 8 | 174 | 0.0 | 0.0 | 0.00 | 0.00 | 0.00 | 92 | 1007.0 |
| 20260506100848 | 8 | 174 | 0.0 | 0.0 | 0.00 | 0.00 | 0.00 | 92 | 1006.8 |
| 20260506100347 | 8 | 174 | 0.0 | 0.0 | 0.00 | 0.00 | 0.00 | 92 | 1006.9 |
| 20260506095844 | 9 | 174 | 0.0 | 0.0 | 0.00 | 0.00 | 0.00 | 92 | 1006.9 |
| 20260506095342 | 10 | 174 | 0.0 | 0.0 | 0.00 | 0.00 | 0.00 | 92 | 1006.8 |
| 20260506094838 | 10 | 174 | 0.0 | 0.0 | 0.00 | 0.00 | 0.00 | 92 | 1006.7 |
| 20260506094337 | 10 | 174 | 0.0 | 0.0 | 0.00 | 0.00 | 0.00 | 92 | 1006.6 |
| 20260506093835 | 9 | 174 | 0.0 | 4.8 | 0.00 | 0.00 | 0.00 | 92 | 1007.0 |
| 20260506093332 | 9 | 174 | 0.0 | 0.0 | 0.00 | 0.00 | 0.00 | 92 | 1006.7 |
| 20260506092830 | 8 | 174 | 0.0 | 0.0 | 0.00 | 0.00 | 0.00 | 92 | 1006.8 |
| 20260506092327 | 8 | 174 | 0.0 | 0.0 | 0.00 | 0.00 | 0.00 | 92 | 1006.8 |
| 20260506091824 | 8 | 174 | 0.0 | 0.0 | 0.00 | 0.00 | 0.00 | 92 | 1006.9 |
| 20260506091322 | 9 | 174 | 0.0 | 0.0 | 0.00 | 0.00 | 0.00 | 92 | 1006.9 |
| 20260506090819 | 9 | 174 | 0.0 | 0.0 | 0.00 | 0.00 | 0.00 | 92 | 1006.7 |
| 20260506090316 | 9 | 174 | 0.0 | 0.0 | 0.00 | 0.00 | 0.00 | 92 | 1006.7 |
| 20260506085813 | 9 | 174 | 0.0 | 0.0 | 0.00 | 0.00 | 0.00 | 92 | 1006.5 |
| 20260506085309 | 9 | 174 | 0.0 | 0.0 | 0.00 | 0.00 | 0.00 | 92 | 1006.5 |
| 20260506084806 | 9 | 174 | 0.0 | 1.6 | 0.00 | 0.00 | 0.00 | 92 | 1006.5 |
| 20260506084302 | 9 | 174 | 0.0 | 0.0 | 0.00 | 0.00 | 0.00 | 92 | 1006.6 |
| 20260506083759 | 10 | 174 | 0.0 | 0.0 | 0.00 | 0.00 | 0.00 | 93 | 1006.7 |
| 20260506083257 | 10 | 174 | 0.0 | 0.0 | 0.00 | 0.00 | 0.00 | 93 | 1006.6 |
| 20260506082754 | 10 | 174 | 0.0 | 0.0 | 0.00 | 0.00 | 0.00 | 92 | 1006.5 |
| 20260506082249 | 10 | 174 | 0.0 | 0.0 | 0.00 | 0.00 | 0.00 | 92 | 1006.6 |
| 20260506081747 | 10 | 174 | 0.0 | 0.0 | 0.00 | 0.00 | 0.00 | 92 | 1006.4 |
| 20260506081244 | 10 | 174 | 0.0 | 0.0 | 0.00 | 0.00 | 0.00 | 92 | 1006.5 |
| 20260506080743 | 10 | 174 | 0.0 | 0.0 | 0.00 | 0.00 | 0.00 | 91 | 1006.2 |
| 20260506080239 | 10 | 174 | 0.0 | 0.0 | 0.00 | 0.00 | 0.00 | 91 | 1006.4 |
| 20260506073223 | 10 | 174 | 0.0 | 0.0 | 0.00 | 0.00 | 0.00 | 93 | 1006.3 |
| 20260506072719 | 10 | 174 | 0.0 | 0.0 | 0.00 | 0.00 | 0.00 | 92 | 1006.3 |
| 20260506072217 | 10 | 174 | 0.0 | 0.0 | 0.00 | 0.00 | 0.00 | 92 | 1006.3 |
| 20260506071714 | 10 | 174 | 0.0 | 0.0 | 0.00 | 0.00 | 0.00 | 92 | 1006.3 |
| 20260506071212 | 10 | 174 | 0.0 | 0.0 | 0.00 | 0.00 | 0.00 | 93 | 1006.3 |
| 20260506070709 | 10 | 174 | 0.0 | 0.0 | 0.00 | 0.00 | 0.00 | 93 | 1005.9 |
| 20260506070206 | 10 | 174 | 0.0 | 0.0 | 0.00 | 0.00 | 0.00 | 93 | 1006.0 |
| 20260506062143 | 10 | 174 | 0.0 | 0.0 | 0.00 | 0.00 | 0.00 | 93 | 1005.7 |
| 20260506061639 | 10 | 174 | 0.0 | 0.0 | 0.00 | 0.00 | 0.00 | 93 | 1005.7 |
| 20260506061137 | 10 | 174 | 0.0 | 0.0 | 0.00 | 0.00 | 0.00 | 93 | 1005.8 |
| 20260506060635 | 10 | 174 | 0.0 | 0.0 | 0.00 | 0.00 | 0.00 | 93 | 1005.7 |
| 20260506060132 | 9 | 174 | 0.0 | 0.0 | 0.00 | 0.00 | 0.00 | 93 | 1005.9 |
| 20260506051103 | 9 | 174 | 0.0 | 0.0 | 0.00 | 0.00 | 0.00 | 95 | 1005.8 |
| 20260506050602 | 9 | 174 | 0.0 | 0.0 | 0.00 | 0.00 | 0.00 | 95 | 1006.0 |
| 20260506045052 | 11 | 174 | 0.0 | 0.0 | 0.00 | 0.00 | 0.00 | 95 | 1005.8 |
| 20260506044550 | 11 | 174 | 0.0 | 0.0 | 0.00 | 0.00 | 0.00 | 95 | 1006.1 |
| 20260506044046 | 11 | 174 | 0.0 | 0.0 | 0.00 | 0.00 | 0.00 | 95 | 1006.2 |
| 20260506043543 | 10 | 174 | 0.0 | 0.0 | 0.00 | 0.00 | 0.00 | 95 | 1006.1 |
| 20260506043042 | 10 | 174 | 0.0 | 0.0 | 0.00 | 0.00 | 0.00 | 95 | 1006.3 |
| 20260506042541 | 11 | 174 | 0.0 | 0.0 | 0.00 | 0.00 | 0.00 | 95 | 1005.9 |
| 20260506042038 | 12 | 174 | 0.0 | 0.0 | 0.00 | 0.00 | 0.00 | 95 | 1006.0 |
| 20260506041537 | 11 | 174 | 0.0 | 0.0 | 0.00 | 0.00 | 0.00 | 95 | 1005.9 |
| 20260506041033 | 11 | 174 | 0.0 | 0.0 | 0.00 | 0.00 | 0.00 | 95 | 1006.1 |
| 20260506040531 | 11 | 174 | 0.0 | 0.0 | 0.00 | 0.00 | 0.00 | 95 | 1006.1 |
| 20260506040026 | 11 | 174 | 0.0 | 0.0 | 0.00 | 0.08 | 0.08 | 95 | 1006.0 |
| 20260506035524 | 11 | 174 | 0.0 | 0.0 | 0.00 | 0.08 | 0.08 | 95 | 1006.1 |
| 20260506035021 | 11 | 174 | 0.0 | 0.0 | 0.00 | 0.08 | 0.08 | 95 | 1006.2 |
| 20260506034518 | 11 | 174 | 0.0 | 0.0 | 0.00 | 0.08 | 0.08 | 95 | 1006.1 |
| 20260506034015 | 11 | 174 | 0.0 | 0.0 | 0.00 | 0.08 | 0.08 | 94 | 1006.0 |
| 20260506033512 | 11 | 174 | 0.0 | 0.0 | 0.00 | 0.08 | 0.08 | 94 | 1006.0 |
| 20260506033009 | 11 | 174 | 0.0 | 0.0 | 0.00 | 0.08 | 0.08 | 93 | 1005.7 |
| 20260506032506 | 11 | 174 | 0.0 | 0.0 | 0.00 | 0.08 | 0.08 | 93 | 1005.8 |
| 20260506032002 | 11 | 174 | 0.0 | 0.0 | 0.00 | 0.08 | 0.08 | 93 | 1005.8 |
| 20260506031501 | 11 | 174 | 0.0 | 0.0 | 0.00 | 0.08 | 0.08 | 93 | 1005.8 |
| 20260506030957 | 11 | 174 | 0.0 | 0.0 | 0.00 | 0.08 | 0.08 | 93 | 1005.7 |
| 20260506030455 | 12 | 174 | 0.0 | 0.0 | 0.00 | 0.08 | 0.08 | 93 | 1005.8 |
| 20260506025952 | 12 | 174 | 0.0 | 0.0 | 0.00 | 0.08 | 0.08 | 94 | 1005.6 |
| 20260506025449 | 13 | 174 | 0.0 | 0.0 | 0.00 | 0.08 | 0.08 | 94 | 1006.0 |
| 20260506024946 | 13 | 174 | 0.0 | 0.0 | 0.00 | 0.08 | 0.08 | 94 | 1006.0 |
| 20260506024442 | 13 | 174 | 0.0 | 0.0 | 0.00 | 0.08 | 0.08 | 94 | 1005.8 |
| 20260506023938 | 13 | 174 | 0.0 | 0.0 | 0.00 | 0.08 | 0.08 | 94 | 1005.7 |
| 20260506023435 | 13 | 174 | 0.0 | 0.0 | 0.00 | 0.08 | 0.08 | 94 | 1005.9 |
| 20260506022932 | 13 | 174 | 0.0 | 0.0 | 0.00 | 0.08 | 0.08 | 94 | 1005.6 |
| 20260506022430 | 14 | 174 | 0.0 | 0.0 | 0.00 | 0.08 | 0.08 | 94 | 1005.7 |
| 20260506021928 | 14 | 174 | 0.0 | 0.0 | 0.00 | 0.08 | 0.08 | 94 | 1005.9 |
| 20260506021424 | 14 | 174 | 0.0 | 0.0 | 0.00 | 0.08 | 0.08 | 95 | 1006.2 |
| 20260506020921 | 14 | 174 | 0.0 | 0.0 | 0.00 | 0.08 | 0.08 | 95 | 1006.2 |
| 20260506020419 | 14 | 174 | 0.0 | 0.0 | 0.00 | 0.08 | 0.08 | 95 | 1006.3 |
| 20260506015916 | 14 | 174 | 0.0 | 0.0 | 0.00 | 0.08 | 0.08 | 95 | 1006.2 |
| 20260506015414 | 14 | 174 | 0.0 | 0.0 | 0.00 | 0.08 | 0.08 | 95 | 1006.4 |
| 20260506014910 | 14 | 174 | 0.0 | 0.0 | 0.00 | 0.08 | 0.08 | 95 | 1006.5 |
| 20260506014407 | 14 | 174 | 0.0 | 0.0 | 0.00 | 0.08 | 0.08 | 95 | 1006.1 |
| 20260506013904 | 13 | 174 | 0.0 | 0.0 | 0.00 | 0.08 | 0.08 | 95 | 1006.1 |
| 20260506013402 | 13 | 174 | 0.0 | 0.0 | 0.00 | 0.08 | 0.08 | 94 | 1006.3 |
| 20260506012858 | 13 | 174 | 0.0 | 0.0 | 0.00 | 0.08 | 0.08 | 93 | 1006.2 |
| 20260506012354 | 13 | 174 | 0.0 | 0.0 | 0.00 | 0.08 | 0.08 | 93 | 1006.0 |
| 20260506011852 | 13 | 174 | 0.0 | 0.0 | 0.00 | 0.08 | 0.08 | 93 | 1006.3 |
| 20260506011349 | 12 | 174 | 0.0 | 0.0 | 0.00 | 0.08 | 0.08 | 93 | 1006.1 |
| 20260506010846 | 12 | 174 | 0.0 | 0.0 | 0.00 | 0.08 | 0.08 | 93 | 1005.9 |
| 20260506010344 | 13 | 174 | 0.0 | 0.0 | 0.00 | 0.08 | 0.08 | 93 | 1005.9 |
| 20260506005841 | 13 | 174 | 0.0 | 0.0 | 0.00 | 0.08 | 0.08 | 93 | 1006.0 |
| 20260506005337 | 13 | 174 | 0.0 | 0.0 | 0.00 | 0.08 | 0.08 | 93 | 1005.8 |
| 20260506004833 | 13 | 174 | 0.0 | 0.0 | 0.00 | 0.08 | 0.08 | 93 | 1005.8 |
| 20260506004331 | 13 | 174 | 0.0 | 0.0 | 0.00 | 0.08 | 0.08 | 92 | 1005.6 |
| 20260506003827 | 13 | 174 | 0.0 | 0.0 | 0.18 | 0.08 | 0.08 | 92 | 1005.8 |
| 20260506003323 | 13 | 174 | 0.0 | 0.0 | 0.00 | 0.05 | 0.05 | 91 | 1005.7 |
| 20260506002820 | 12 | 174 | 0.0 | 0.0 | 0.00 | 0.05 | 0.05 | 90 | 1005.6 |
| 20260506002316 | 12 | 174 | 0.0 | 0.0 | 0.00 | 0.05 | 0.05 | 90 | 1005.1 |
| 20260506001812 | 12 | 174 | 0.0 | 0.0 | 0.00 | 0.05 | 0.05 | 89 | 1004.9 |
| 20260506001310 | 13 | 174 | 0.0 | 0.0 | 0.00 | 0.05 | 0.05 | 90 | 1005.0 |
| 20260506000806 | 15 | 174 | 0.0 | 0.0 | 0.00 | 0.05 | 0.05 | 93 | 1004.8 |
| 20260506000304 | 15 | 174 | 0.0 | 0.0 | 0.00 | 0.05 | 0.05 | 92 | 1004.7 |
| 20260505235801 | 15 | 174 | 0.0 | 0.0 | 0.00 | 0.05 | 0.05 | 92 | 1004.5 |
| 20260505235258 | 15 | 174 | 0.0 | 0.0 | 0.00 | 0.05 | 0.05 | 91 | 1004.3 |
| 20260505234755 | 15 | 174 | 0.0 | 0.0 | 0.00 | 0.05 | 0.05 | 91 | 1004.4 |
| 20260505234253 | 16 | 174 | 0.0 | 0.0 | 0.00 | 0.05 | 0.05 | 90 | 1004.2 |
| 20260505233749 | 16 | 174 | 0.0 | 0.0 | 0.00 | 0.05 | 0.05 | 89 | 1004.1 |
| 20260505233247 | 16 | 174 | 0.0 | 0.0 | 0.00 | 0.05 | 0.05 | 88 | 1004.0 |
| 20260505232744 | 16 | 174 | 0.0 | 0.0 | 0.00 | 0.05 | 0.05 | 88 | 1003.7 |
| 20260505232242 | 17 | 174 | 0.0 | 0.0 | 0.00 | 0.05 | 0.05 | 84 | 1003.7 |
| 20260505231738 | 17 | 174 | 0.0 | 0.0 | 0.00 | 0.05 | 0.05 | 80 | 1004.0 |
| 20260505231237 | 18 | 174 | 3.2 | 4.8 | 0.00 | 0.05 | 0.05 | 71 | 1004.2 |
| 20260505230735 | 18 | 174 | 0.0 | 0.0 | 0.00 | 0.05 | 0.05 | 73 | 1003.9 |
| 20260505230231 | 18 | 174 | 1.6 | 6.4 | 0.30 | 0.05 | 0.05 | 70 | 1003.8 |
| 20260505225728 | 18 | 174 | 0.0 | 3.2 | 0.30 | 0.05 | 0.05 | 71 | 1004.0 |
| 20260505225225 | 18 | 174 | 0.0 | 3.2 | 0.00 | 0.00 | 0.00 | 73 | 1003.9 |
| 20260505224720 | 18 | 174 | 0.0 | 12.9 | 0.00 | 0.00 | 0.00 | 69 | 1003.8 |
| 20260505224218 | 20 | 174 | 3.2 | 6.4 | 0.00 | 0.00 | 0.00 | 64 | 1004.1 |
| 20260505223716 | 20 | 174 | 4.8 | 12.9 | 0.00 | 0.00 | 0.00 | 58 | 1004.0 |
| 20260505223211 | 21 | 174 | 3.2 | 12.9 | 0.00 | 0.00 | 0.00 | 55 | 1003.6 |
| 20260505222708 | 20 | 174 | 4.8 | 9.7 | 0.00 | 0.00 | 0.00 | 52 | 1003.8 |
| 20260505222203 | 20 | 174 | 0.0 | 0.0 | 0.00 | 0.00 | 0.00 | 53 | 1001.8 |
| 20260505221701 | 20 | 174 | 0.0 | 0.0 | 0.00 | 0.00 | 0.00 | 52 | 1001.7 |
| 20260505221158 | 20 | 174 | 0.0 | 0.0 | 0.00 | 0.00 | 0.00 | 52 | 1001.8 |
| 20260505220655 | 20 | 174 | 0.0 | 1.6 | 0.00 | 0.00 | 0.00 | 51 | 1001.5 |
| 20260505220153 | 20 | 174 | 0.0 | 0.0 | 0.00 | 0.00 | 0.00 | 50 | 1001.4 |
| 20260505215650 | 20 | 174 | 1.6 | 3.2 | 0.00 | 0.00 | 0.00 | 50 | 1001.1 |
| 20260505215148 | 20 | 174 | 0.0 | 0.0 | 0.00 | 0.00 | 0.00 | 52 | 1001.2 |
| 20260505214645 | 20 | 174 | 0.0 | 0.0 | 0.00 | 0.00 | 0.00 | 52 | 1001.2 |